Date,TemperatureHighF,TemperatureAvgF,TemperatureLowF,DewpointHighF,DewpointAvgF,DewpointLowF,HumidityHigh,HumidityAvg,HumidityLow,PressureMaxIn,PressureMinIn,WindSpeedMaxMPH,WindSpeedAvgMPH,GustSpeedMaxMPH,PrecipitationSumIn
2012-1-1,65.5,48.1,31.8,53.1,40.0,27.5,96,77,42,30.06,29.76,6,0,6,0.05
2012-1-2,48.4,39.9,28.8,28.5,18.9,12.5,57,43,27,29.96,29.84,10,0,10,0.10
2012-1-3,34.7,26.8,18.4,14.9,9.0,3.8,72,48,30,30.25,29.94,5,0,11,0.00
2012-1-4,43.1,27.5,16.0,17.0,12.7,8.7,83,57,25,30.30,29.97,4,0,4,0.00
2012-1-5,53.5,39.0,30.2,27.9,22.6,12.0,83,53,33,30.01,29.93,6,0,6,0.00
2012-1-6,67.5,45.3,30.4,33.8,29.5,25.9,85,58,24,30.00,29.85,3,0,3,0.00
2012-1-7,71.3,51.0,36.0,45.9,38.0,30.2,82,63,38,29.96,29.82,5,0,5,0.00
2012-1-8,58.4,50.9,44.0,45.1,38.5,31.8,89,64,38,30.17,29.94,2,0,2,0.04
2012-1-9,46.3,43.0,42.1,42.4,41.0,40.2,95,93,89,30.17,29.97,0,0,0,0.16
2012-1-10,59.2,45.5,40.1,42.6,39.2,32.2,96,81,37,30.03,29.92,0,0,0,0.00
2012-1-11,56.3,48.1,40.8,55.2,45.4,37.7,97,90,79,29.93,29.42,2,0,4,0.37
2012-1-12,58.2,49.2,41.9,49.2,44.9,40.8,96,85,67,29.56,29.41,4,0,4,0.02
2012-1-13,51.7,36.9,28.5,46.3,21.5,16.3,83,54,38,29.97,29.40,9,0,9,0.00
2012-1-14,46.2,32.7,22.7,24.4,19.6,15.6,84,60,30,30.12,29.96,4,0,4,0.00
2012-1-15,44.5,31.3,23.6,27.2,23.0,20.0,94,73,43,30.47,30.02,6,0,6,0.00
2012-1-16,48.7,34.3,22.0,32.7,24.7,19.5,91,70,41,30.51,30.24,3,0,3,0.00
2012-1-17,63.4,51.6,39.6,53.1,44.1,31.6,91,76,61,30.26,29.71,5,0,5,0.09
2012-1-18,55.7,44.3,32.2,53.0,31.5,20.2,92,62,37,30.05,29.71,7,0,7,0.02
2012-1-19,48.7,35.2,22.3,30.8,23.4,16.7,83,63,40,30.15,29.95,4,0,4,0.00
2012-1-20,57.3,41.8,27.2,42.7,34.7,25.4,95,78,43,30.07,29.98,1,0,1,0.14
2012-1-21,52.8,47.3,34.0,51.1,45.6,31.1,96,94,87,30.11,29.76,3,0,3,0.22
2012-1-22,36.2,33.9,31.5,33.6,31.6,28.8,95,91,87,30.30,30.10,4,0,4,0.00
2012-1-23,50.8,40.9,34.8,50.0,39.8,33.4,97,96,94,30.25,29.93,2,0,2,0.04
2012-1-24,62.2,49.1,37.7,51.1,45.4,36.7,97,88,55,30.14,29.93,3,0,3,0.00
2012-1-25,63.7,41.5,29.4,42.4,34.7,28.4,97,80,36,30.24,30.11,2,0,2,0.00
2012-1-26,70.0,51.6,35.0,57.6,47.3,32.9,96,86,58,30.12,29.66,5,0,5,0.00
2012-1-27,66.7,58.0,38.7,59.7,49.0,33.4,94,74,43,29.93,29.50,6,0,6,0.47
2012-1-28,60.7,43.7,28.6,40.3,32.9,22.3,96,69,40,30.13,29.92,6,0,6,0.00
2012-1-29,53.6,39.2,25.2,23.8,18.3,6.7,82,46,16,30.27,30.13,5,0,5,0.00
2012-1-30,59.8,40.9,26.9,29.2,23.9,15.6,82,54,24,30.34,30.16,5,0,5,0.00
2012-1-31,68.3,49.6,35.3,35.6,29.2,23.7,72,48,23,30.28,30.13,5,0,5,0.00
2012-2-1,68.3,55.9,48.8,51.3,41.1,29.9,93,59,44,30.16,29.97,5,0,5,0.06
2012-2-2,68.2,54.9,38.1,52.3,44.2,30.9,96,71,34,30.22,29.89,11,0,12,0.01
2012-2-3,59.7,41.0,29.1,34.4,30.9,27.3,95,71,32,30.40,30.20,4,0,4,0.00
2012-2-4,54.4,45.3,33.4,47.0,39.8,29.7,95,82,51,30.29,29.95,3,0,3,0.09
2012-2-5,48.0,40.6,29.7,46.6,38.9,28.7,96,94,90,30.17,29.90,4,0,4,0.14
2012-2-6,48.4,37.6,28.5,36.5,32.6,27.5,97,84,52,30.22,30.05,2,0,2,0.00
2012-2-7,58.2,40.3,29.9,37.7,31.5,27.8,94,74,33,30.10,30.02,2,0,4,0.00
2012-2-8,50.3,36.1,26.7,40.6,31.9,25.4,96,86,64,30.12,30.01,2,0,3,0.00
2012-2-9,52.4,37.6,29.0,31.3,27.9,25.4,90,70,37,30.21,30.08,5,0,5,0.00
2012-2-10,48.9,38.4,26.4,37.7,32.7,24.6,95,81,63,30.14,29.79,2,0,2,0.00
2012-2-11,46.8,37.2,23.1,37.7,24.5,1.9,95,63,31,29.95,29.63,16,1,16,0.00
2012-2-12,41.7,29.0,20.0,16.2,8.3,1.5,65,42,26,30.17,29.94,12,0,12,0.00
2012-2-13,52.5,33.7,18.7,25.3,17.8,12.0,86,57,20,30.20,30.03,4,0,4,0.00
2012-2-14,56.9,46.1,37.2,40.5,30.9,19.4,74,56,40,30.06,29.90,7,0,10,0.00
2012-2-15,65.6,46.0,32.7,40.5,33.8,27.8,95,67,25,30.19,29.96,3,0,3,0.00
2012-2-16,58.1,47.5,37.3,50.5,42.0,31.3,96,82,56,30.19,29.91,3,0,3,0.33
2012-2-17,64.1,49.0,37.6,47.7,40.3,32.1,97,76,34,30.02,29.92,4,0,4,0.00
2012-2-18,65.8,49.0,33.5,42.7,36.1,26.9,91,65,27,30.04,29.87,3,0,3,0.00
2012-2-19,48.9,39.8,32.1,44.5,35.7,30.5,94,86,66,29.89,29.66,4,0,4,0.48
2012-2-20,51.2,35.8,26.4,36.1,30.3,24.9,95,82,45,30.27,29.82,5,0,5,0.31
2012-2-21,58.4,39.5,23.9,43.4,33.7,22.7,96,82,49,30.27,29.90,5,0,5,0.03
2012-2-22,69.8,51.4,35.0,47.5,41.7,33.7,96,73,34,29.91,29.47,7,0,7,0.00
2012-2-23,74.2,55.7,42.3,58.7,50.1,41.0,96,83,49,29.60,29.47,7,0,7,0.20
2012-2-24,75.7,63.6,45.7,63.1,53.6,24.5,91,71,40,29.75,29.35,11,0,11,0.65
2012-2-25,52.5,42.5,32.9,26.9,20.2,14.8,60,41,26,30.24,29.73,10,1,10,0.00
2012-2-26,56.3,36.4,22.9,26.4,21.4,15.7,86,59,24,30.42,30.23,4,0,4,0.00
2012-2-27,50.6,42.0,28.7,48.0,38.1,24.1,95,86,64,30.39,30.23,1,0,1,0.19
2012-2-28,68.6,49.7,36.9,46.3,39.9,33.0,96,74,28,30.33,30.20,5,0,5,0.01
2012-2-29,68.3,55.5,43.2,61.3,50.4,36.8,94,83,68,30.22,29.69,7,0,7,0.12
2012-3-1,79.3,63.5,43.4,60.3,50.2,33.8,96,68,22,29.78,29.61,7,0,7,0.02
2012-3-2,54.9,48.8,39.5,52.8,45.3,35.2,96,88,76,29.92,29.59,5,0,5,0.01
2012-3-3,60.2,54.6,47.1,57.7,50.9,41.8,97,88,63,29.67,29.44,5,0,5,0.76
2012-3-4,54.8,44.5,30.7,44.2,30.2,17.5,93,61,29,29.93,29.58,10,0,10,0.05
2012-3-5,51.4,39.6,27.7,32.8,24.1,16.3,89,57,33,30.41,29.82,11,0,11,0.00
2012-3-6,58.0,37.7,23.2,30.3,24.2,19.0,90,63,24,30.59,30.40,3,0,3,0.00
2012-3-7,70.3,49.4,30.1,47.1,39.4,27.5,92,71,41,30.56,30.34,9,0,9,0.00
2012-3-8,73.5,58.8,44.6,55.5,49.6,43.3,96,75,40,30.35,30.00,7,0,7,0.00
2012-3-9,60.2,52.8,36.6,56.6,43.2,28.1,95,73,34,30.23,29.95,5,0,5,0.23
2012-3-10,49.4,37.7,31.9,32.0,27.2,23.7,81,66,42,30.42,30.22,4,0,4,0.00
2012-3-11,67.3,44.5,27.8,35.7,29.2,25.4,94,61,23,30.50,30.35,2,0,4,0.00
2012-3-12,72.3,55.2,39.3,53.6,44.7,30.9,95,69,45,30.35,30.13,6,0,6,0.00
2012-3-13,81.2,64.5,55.9,62.7,54.9,49.4,91,73,43,30.14,29.99,5,0,5,0.00
2012-3-14,84.2,65.4,51.6,59.4,52.6,44.2,96,69,27,30.12,30.02,6,0,6,0.00
2012-3-15,84.0,65.8,51.5,56.7,51.9,48.2,95,65,32,30.16,30.06,4,0,4,0.00
2012-3-16,81.5,64.4,50.5,59.9,54.8,48.6,96,74,39,30.11,29.99,5,0,5,0.12
2012-3-17,82.0,64.5,52.6,64.5,57.8,51.5,97,81,46,30.16,30.05,4,0,4,0.21
2012-3-18,69.2,61.1,54.8,62.7,58.2,53.3,97,91,74,30.23,30.11,1,0,2,0.20
2012-3-19,81.8,61.8,49.6,66.8,56.5,48.5,97,85,49,30.17,30.01,4,0,4,0.01
2012-3-20,86.7,68.4,56.6,65.2,59.6,55.5,97,77,40,30.17,30.00,4,0,4,0.51
2012-3-21,80.8,65.2,54.6,68.0,59.5,53.6,97,84,50,30.21,30.08,2,0,2,0.00
2012-3-22,83.5,65.8,54.5,65.3,59.3,53.4,97,82,45,30.17,30.03,5,0,5,0.00
2012-3-23,87.0,68.8,55.5,65.6,59.8,54.4,97,76,41,30.05,29.85,6,0,6,0.00
2012-3-24,75.5,63.9,54.2,68.4,61.4,51.9,97,92,75,29.89,29.66,5,0,5,1.74
2012-3-25,64.8,58.4,53.2,59.4,55.6,52.1,97,91,79,29.71,29.61,4,0,5,0.20
2012-3-26,78.2,63.5,52.4,55.9,49.7,31.1,95,65,35,30.03,29.70,6,0,7,0.00
2012-3-27,67.8,49.3,38.2,36.1,28.5,19.1,80,48,18,30.27,30.03,4,0,4,0.00
2012-3-28,79.1,60.5,41.9,60.3,49.2,33.3,83,68,48,30.17,29.74,4,0,7,0.00
2012-3-29,84.7,67.2,50.9,57.2,47.8,34.5,87,56,20,29.83,29.71,7,0,7,0.00
2012-3-30,79.3,60.7,45.6,59.2,50.1,42.3,93,70,43,29.96,29.75,3,0,3,0.00
2012-3-31,78.7,65.5,58.7,64.8,59.6,55.7,96,83,50,29.76,29.59,4,0,4,0.14
2012-4-1,71.2,59.4,46.6,57.3,51.2,45.1,96,76,47,29.83,29.59,2,0,2,0.00
2012-4-2,77.0,64.8,48.5,60.5,51.0,39.3,82,63,30,29.84,29.53,7,0,7,0.00
2012-4-3,80.2,59.4,39.5,59.2,47.1,37.7,96,68,31,29.94,29.69,4,0,4,0.00
2012-4-4,88.3,67.5,56.7,66.1,59.9,54.4,96,79,38,29.71,29.53,3,0,9,0.35
2012-4-5,67.7,58.2,47.3,60.7,49.2,39.2,97,74,46,29.76,29.54,2,0,5,0.05
2012-4-6,64.8,50.9,38.4,45.6,39.9,30.3,94,71,31,30.00,29.73,6,0,6,0.06
2012-4-7,69.0,48.8,32.4,39.0,32.5,23.2,96,62,20,30.18,30.00,2,0,4,0.00
2012-4-8,76.8,55.2,34.5,45.0,37.6,29.8,94,59,21,30.06,29.81,5,0,5,0.00
2012-4-9,75.3,59.3,45.6,42.9,35.5,28.3,70,44,22,29.95,29.73,5,0,6,0.00
2012-4-10,73.8,58.2,41.4,40.7,36.4,23.9,86,48,24,29.85,29.65,9,0,9,0.00
2012-4-11,57.4,48.0,36.8,31.6,26.7,22.4,71,45,29,30.05,29.70,7,0,7,0.00
2012-4-12,64.7,46.8,32.1,36.9,30.7,25.8,87,57,26,30.14,30.03,4,0,5,0.00
2012-4-13,71.5,50.6,35.2,43.8,37.4,32.2,92,66,27,30.18,30.06,4,0,4,0.00
2012-4-14,78.3,57.9,40.0,50.5,42.6,37.0,91,62,27,30.23,30.06,4,0,4,0.00
2012-4-15,81.7,65.6,53.8,63.4,57.5,50.8,96,77,48,30.13,30.02,1,0,5,0.00
2012-4-16,86.8,69.9,58.0,63.4,58.7,55.1,92,70,40,30.09,29.96,4,0,5,0.00
2012-4-17,87.8,70.6,58.2,63.5,58.1,51.6,95,68,34,30.08,29.97,2,0,3,0.03
2012-4-18,66.2,57.9,53.6,53.9,51.5,48.5,94,80,60,30.09,29.97,4,0,4,0.31
2012-4-19,62.1,56.1,50.9,55.6,52.6,49.5,95,88,74,30.01,29.94,1,0,2,0.01
2012-4-20,74.8,61.3,49.9,61.2,55.7,48.5,97,83,56,29.95,29.77,3,0,3,0.00
2012-4-21,81.9,64.7,52.1,65.7,59.0,51.0,97,84,50,29.79,29.59,3,0,3,0.82
2012-4-22,60.4,53.7,46.8,58.4,52.1,45.2,96,94,90,29.66,29.39,5,0,5,0.68
2012-4-23,50.9,45.2,39.9,45.5,40.9,37.4,95,85,61,29.60,29.39,6,0,6,0.06
2012-4-24,65.5,48.5,35.7,39.2,33.7,25.2,91,62,26,29.71,29.58,9,0,9,0.00
2012-4-25,70.6,53.7,38.4,53.8,46.0,36.0,94,77,46,29.88,29.71,2,0,4,0.01
2012-4-26,75.9,62.3,52.7,66.2,58.4,50.7,97,88,59,29.81,29.65,3,0,3,0.49
2012-4-27,78.7,64.6,55.9,61.7,56.9,49.9,97,79,38,29.93,29.70,3,0,3,0.00
2012-4-29,84.2,71.8,59.9,63.3,60.4,56.3,93,69,47,30.11,30.01,3,0,3,0.00
2012-4-30,81.8,67.6,58.6,68.5,62.5,56.5,96,85,59,30.15,30.00,3,0,3,0.00
2012-5-1,89.7,73.3,63.3,72.3,65.9,61.8,96,79,51,30.05,29.91,4,0,4,0.00
2012-5-2,96.9,75.9,64.4,72.1,67.1,62.6,95,77,39,30.01,29.93,3,0,3,0.00
2012-5-3,97.2,76.2,62.1,73.3,66.7,60.7,97,75,39,30.02,29.93,2,0,2,0.00
2012-5-4,93.8,74.4,60.7,71.6,65.3,59.6,97,76,41,29.95,29.80,3,0,3,0.00
2012-5-5,71.1,66.7,62.4,67.5,63.8,60.2,96,91,78,29.82,29.73,1,0,1,1.90
2012-5-6,76.0,67.4,59.6,68.5,64.4,58.2,96,90,71,29.94,29.77,3,0,3,0.09
2012-5-7,84.7,67.1,58.1,66.5,60.9,56.8,97,82,49,29.98,29.87,2,0,2,0.00
2012-5-8,81.8,68.7,58.4,68.9,62.5,56.5,95,81,60,29.92,29.75,3,0,3,0.00
2012-5-9,76.0,65.5,57.3,69.0,62.3,55.9,96,90,71,29.77,29.58,4,0,4,0.97
2012-5-10,74.5,60.2,50.4,55.8,50.4,45.9,95,74,40,29.88,29.61,4,0,4,0.01
2012-5-11,78.8,57.6,42.5,50.5,45.1,39.0,97,69,26,30.14,29.86,3,0,3,0.00
2012-5-12,79.1,60.8,44.0,59.2,50.8,42.5,97,73,35,30.25,30.13,2,0,2,0.00
2012-5-13,75.0,63.5,53.0,64.2,59.0,51.3,97,86,64,30.17,30.04,2,0,2,0.15
2012-5-14,71.0,66.3,61.0,67.4,64.3,60.2,97,93,83,30.05,29.86,1,0,1,0.81
2012-5-15,85.7,71.0,62.0,70.9,65.7,61.1,98,85,54,29.90,29.81,2,0,2,0.19
2012-5-16,85.9,71.4,64.6,71.0,66.1,63.4,97,85,51,29.87,29.77,2,0,2,0.14
2012-5-17,83.2,69.6,59.4,70.1,64.0,58.5,98,84,58,29.95,29.81,4,0,4,0.00
2012-5-18,78.0,66.5,57.1,62.0,54.5,46.5,92,68,38,30.02,29.93,5,0,5,0.00
2012-5-19,80.3,63.6,49.9,59.6,51.9,47.0,96,69,36,30.06,29.97,5,0,5,0.00
2012-5-20,83.3,65.8,49.5,62.2,55.5,48.3,97,73,37,30.03,29.94,5,0,5,0.00
2012-5-21,87.9,72.0,63.7,68.5,63.9,60.3,93,77,48,29.95,29.76,2,0,2,0.00
2012-5-22,89.3,71.4,62.8,71.2,65.1,61.3,97,82,49,29.79,29.68,2,0,2,0.00
2012-5-23,83.2,68.4,60.1,71.1,64.4,59.0,97,88,57,29.86,29.70,2,0,2,1.58
2012-5-24,89.8,71.3,59.1,74.2,66.0,58.0,97,85,47,29.95,29.84,1,0,1,0.00
2012-5-25,91.3,73.6,60.4,73.6,66.6,59.5,98,81,46,30.04,29.94,3,0,3,0.00
2012-5-26,91.2,74.7,63.4,71.2,66.8,62.5,98,79,47,30.06,29.97,3,0,3,0.00
2012-5-27,90.1,73.9,62.2,73.8,68.0,61.0,97,83,54,30.06,29.95,3,0,3,0.00
2012-5-28,94.8,77.3,69.0,74.6,70.0,67.7,97,80,47,30.00,29.87,1,0,1,0.00
2012-5-29,90.0,75.3,68.2,78.9,70.5,67.0,97,86,57,29.92,29.74,3,0,3,0.10
2012-5-30,87.0,73.2,62.9,71.8,66.7,57.2,97,83,40,29.77,29.62,6,0,6,0.16
2012-5-31,94.5,75.3,61.9,72.1,64.5,59.9,96,73,36,29.81,29.69,4,0,6,0.08
2012-6-1,88.8,71.7,63.8,75.3,67.7,62.1,97,88,55,29.81,29.58,5,0,6,0.29
2012-6-2,77.6,64.2,53.8,63.3,54.9,49.2,96,75,42,29.82,29.67,3,0,6,8.88
2012-6-3,82.8,65.2,49.6,63.1,55.0,48.5,97,73,42,29.86,29.71,4,0,6,8.88
2012-6-4,86.6,71.0,60.1,64.4,59.1,54.1,91,69,38,29.73,29.56,4,0,6,8.88
2012-6-5,79.8,66.8,57.5,59.6,56.8,51.2,93,72,39,29.84,29.62,3,0,6,0.01
2012-6-6,75.0,62.0,55.1,61.7,56.7,53.1,95,84,56,29.92,29.81,3,0,6,0.29
2012-6-7,85.3,65.5,52.5,63.5,56.7,51.4,97,77,41,29.96,29.89,3,0,6,16.08
2012-6-8,89.8,68.8,53.9,62.2,56.4,51.3,97,70,30,29.97,29.88,3,0,6,16.08
2012-6-9,93.7,72.0,55.8,66.5,59.2,54.0,97,69,32,29.99,29.90,3,0,6,16.08
2012-6-10,91.5,74.5,62.1,69.4,63.4,58.4,92,71,35,30.05,29.96,3,0,6,16.08
2012-6-11,90.2,73.6,66.7,76.8,68.8,63.0,96,86,59,30.06,29.93,3,0,6,0.25
2012-6-12,85.2,73.9,69.0,76.9,71.1,68.1,97,91,71,29.94,29.75,2,0,6,0.10
2012-6-13,87.7,74.3,62.5,72.5,66.2,53.0,97,78,50,29.93,29.77,4,0,6,0.01
2012-6-14,78.5,62.3,53.2,67.8,56.7,51.5,95,83,64,30.03,29.90,4,0,6,13.39
2012-6-16,85.9,73.3,56.6,66.1,57.5,52.8,92,60,37,30.19,30.03,3,0,6,0.01
2012-6-17,86.7,66.9,51.7,64.5,57.6,50.3,97,75,41,30.10,29.93,5,0,6,24.96
2012-6-18,88.5,72.7,59.7,72.0,64.3,56.5,93,77,51,30.00,29.93,5,0,6,24.96
2012-6-19,94.3,76.6,65.4,75.7,67.9,63.1,94,76,46,30.06,29.98,3,0,6,24.96
2012-6-20,99.5,79.8,66.6,76.8,70.0,65.2,97,75,38,30.06,29.95,3,0,6,24.96
2012-6-21,98.9,81.4,69.6,80.2,71.7,67.2,93,74,44,29.96,29.78,2,0,6,24.96
2012-6-22,99.7,78.4,69.4,76.7,70.4,67.7,96,79,41,29.81,29.68,4,0,6,1.19
2012-6-23,91.0,76.3,66.8,75.9,70.4,65.8,98,84,53,29.91,29.76,3,0,6,53.52
2012-6-24,95.7,78.4,66.0,75.0,69.5,64.9,98,77,41,29.92,29.79,2,0,6,53.52
2012-6-25,96.2,80.8,70.0,76.4,70.2,65.1,96,73,39,29.83,29.58,4,0,6,53.52
2012-6-26,76.1,65.3,58.1,67.3,54.5,48.5,87,68,52,29.82,29.64,6,0,6,26.76
2012-6-27,91.8,69.3,52.2,60.3,54.8,48.7,97,66,26,29.89,29.78,4,0,4,0.01
2012-6-28,80.4,61.9,57.1,65.4,57.2,54.8,95,85,54,29.91,29.85,2,0,4,24.64
2012-6-29,70.6,70.6,70.6,64.1,64.1,64.1,80,80,80,29.74,29.74,0,0,4,0.00
2012-6-30,104.0,92.5,78.0,74.1,70.3,61.1,74,50,33,29.81,29.71,4,0,8,0.09
2012-7-1,101.7,82.0,68.1,80.5,69.8,60.5,97,71,31,29.86,29.74,9,0,9,55.92
2012-7-2,97.5,81.6,70.1,73.4,67.0,62.8,82,63,34,29.91,29.83,7,0,9,55.92
2012-7-3,102.2,82.9,68.3,74.6,68.6,63.4,93,66,30,29.91,29.78,6,0,9,55.92
2012-7-4,100.5,81.9,71.6,74.3,69.8,66.3,89,70,36,29.86,29.78,4,0,9,55.92
2012-7-5,102.2,79.9,71.2,81.8,72.1,63.2,94,79,38,29.83,29.73,5,0,9,0.15
2012-7-6,103.0,80.2,69.1,77.8,71.1,66.3,96,77,40,29.89,29.77,6,0,9,0.51
2012-7-7,103.6,83.0,70.2,80.0,73.1,69.3,98,76,37,29.89,29.79,4,0,9,71.76
2012-7-8,107.2,85.9,74.4,80.5,73.0,68.3,87,68,31,29.84,29.70,3,0,9,71.76
2012-7-9,82.8,75.1,72.1,72.7,70.9,69.5,96,87,70,29.87,29.73,3,0,9,1.85
2012-7-10,87.2,77.7,71.6,77.8,73.4,70.7,97,87,65,29.93,29.82,1,0,3,0.02
2012-7-11,80.8,70.7,65.3,75.9,68.8,64.1,97,94,78,30.04,29.92,3,0,3,1.01
2012-7-12,82.0,73.0,65.2,73.8,69.0,64.2,98,88,65,30.07,30.01,3,0,3,0.00
2012-7-13,87.8,76.8,68.9,78.2,72.5,67.7,97,87,66,30.10,30.02,2,0,3,0.42
2012-7-14,92.9,79.1,71.4,81.5,74.5,70.5,98,87,60,30.12,30.00,2,0,3,0.00
2012-7-15,97.5,80.9,70.5,81.2,73.7,69.6,98,81,49,30.10,29.95,2,0,3,0.00
2012-7-16,98.3,80.9,72.0,79.2,73.2,69.9,95,79,46,29.98,29.81,2,0,3,0.00
2012-7-17,99.6,81.5,70.1,83.3,74.2,68.9,97,81,43,29.86,29.76,2,0,3,0.00
2012-7-18,99.5,83.1,71.5,81.5,74.7,70.3,97,78,48,29.87,29.78,2,0,3,0.00
2012-7-19,97.7,81.3,72.3,79.1,72.6,69.8,94,77,45,29.90,29.81,4,0,4,0.00
2012-7-20,97.0,79.1,71.7,79.6,72.9,69.8,96,83,47,29.85,29.76,2,0,4,0.21
2012-7-21,92.1,77.4,71.1,79.7,73.1,68.4,97,88,59,30.01,29.82,3,0,4,0.41
2012-7-22,87.5,73.7,71.1,78.4,71.9,69.9,97,95,69,30.09,29.96,2,0,4,0.03
2012-7-23,97.0,79.3,71.0,79.7,73.7,69.9,98,85,49,30.05,29.91,3,0,3,0.41
2012-7-24,96.1,78.4,71.6,80.3,73.2,68.0,98,86,57,29.93,29.73,4,0,4,0.00
2012-7-25,94.4,78.6,68.8,77.0,70.7,66.1,92,78,49,29.86,29.76,2,0,4,0.00
2012-7-26,101.0,83.4,71.9,80.3,74.8,70.4,97,78,45,29.81,29.66,3,0,4,0.00
2012-7-27,84.8,75.6,73.4,74.9,73.0,71.1,96,92,72,29.83,29.70,2,0,4,0.15
2012-7-28,98.8,79.5,69.4,79.7,73.2,68.4,98,83,48,29.90,29.77,2,0,4,1.07
2012-7-29,95.8,76.9,66.9,74.8,69.9,66.3,98,82,43,29.91,29.82,2,0,4,0.00
2012-7-30,93.5,76.5,68.0,76.3,70.5,67.0,98,84,52,29.92,29.84,3,0,4,0.00
2012-7-31,92.0,75.9,68.0,75.6,70.9,66.7,97,86,53,29.90,29.78,2,0,4,0.00
2012-8-1,95.8,78.4,69.4,77.5,71.7,68.5,98,82,48,29.83,29.71,2,0,4,0.00
2012-8-2,97.2,78.5,70.2,78.4,70.9,66.9,97,79,47,29.85,29.74,2,0,4,0.00
2012-8-3,96.9,78.5,66.3,78.2,70.9,65.2,98,80,46,29.97,29.83,3,0,4,0.00
2012-8-4,95.6,79.7,70.5,77.2,72.8,69.0,97,81,51,30.09,29.96,3,0,4,0.00
2012-8-5,92.2,78.0,71.3,79.6,73.7,70.4,98,87,64,30.12,29.99,2,0,4,0.14
2012-8-6,95.3,79.6,72.1,78.2,73.1,70.9,97,83,50,30.03,29.89,3,0,4,0.04
2012-8-7,84.0,75.4,71.4,78.8,73.3,70.2,97,93,77,29.96,29.86,1,0,4,1.44
2012-8-8,91.4,75.8,68.4,78.9,72.4,67.1,98,90,61,29.90,29.79,4,0,4,0.00
2012-8-9,90.8,75.5,64.7,79.0,71.3,64.0,98,88,64,29.90,29.77,0,0,4,0.00
2012-8-10,82.0,74.6,69.6,76.5,72.1,68.7,98,92,79,29.79,29.70,2,0,4,0.71
2012-8-11,84.5,74.7,70.9,76.6,72.6,69.1,98,93,74,29.84,29.74,2,0,4,2.14
2012-8-12,90.6,74.6,66.9,73.3,68.7,64.7,98,84,49,29.92,29.80,2,0,4,0.00
2012-8-13,94.2,74.0,62.7,74.6,67.8,62.0,99,83,46,29.96,29.84,1,0,4,0.00
2012-8-14,91.7,75.0,62.9,75.2,68.3,61.8,98,81,50,29.85,29.75,4,0,4,0.00
2012-8-15,90.0,76.2,68.3,74.9,70.7,67.3,98,84,58,29.84,29.76,0,0,4,0.00
2012-8-16,91.8,74.5,65.5,71.8,67.3,63.7,98,81,46,29.93,29.83,2,0,4,0.00
2012-8-17,90.5,74.1,62.8,75.3,68.1,61.9,98,83,52,29.90,29.72,2,0,4,0.00
2012-8-18,86.2,74.0,66.0,72.5,68.1,65.1,98,83,57,29.82,29.73,3,0,4,0.00
2012-8-19,71.4,69.4,67.2,69.9,68.0,66.1,98,95,92,29.82,29.74,1,0,4,1.46
2012-8-20,80.7,70.5,66.0,72.2,67.8,65.2,98,92,68,29.87,29.75,1,0,4,0.14
2012-8-21,85.5,70.9,65.2,74.2,67.8,64.4,98,91,64,29.97,29.87,0,0,4,0.80
2012-8-22,80.0,71.4,64.9,74.4,69.0,64.3,98,92,78,30.03,29.94,0,0,4,0.01
2012-8-23,86.0,73.2,65.3,72.0,67.8,64.6,99,85,52,30.05,29.98,0,0,4,0.00
2012-8-24,78.6,70.3,63.3,69.6,66.1,62.6,98,87,67,30.06,29.99,0,0,4,0.00
2012-8-25,70.8,66.7,61.2,64.6,62.8,59.5,97,87,77,30.03,29.99,4,0,5,0.07
2012-8-26,83.5,71.5,63.0,72.7,66.7,61.5,97,86,65,30.09,30.01,2,0,5,0.00
2012-8-27,89.0,74.7,64.5,77.0,70.5,63.7,98,88,62,30.06,29.91,1,0,5,0.00
2012-8-28,89.5,77.7,71.2,79.3,73.5,70.3,98,88,66,29.93,29.79,1,0,5,0.19
2012-8-29,86.5,74.7,67.4,75.1,70.6,66.2,98,88,60,29.91,29.81,2,0,5,0.00
2012-8-30,90.3,74.4,63.8,75.6,69.5,63.2,98,86,50,30.05,29.90,3,0,5,0.00
2012-8-31,92.7,79.0,70.9,79.4,74.0,70.1,98,86,56,30.10,29.96,2,0,5,0.00
2012-9-1,93.0,80.0,72.6,78.9,74.2,70.4,98,84,53,30.02,29.92,3,0,5,0.00
2012-9-2,89.7,78.5,70.9,79.2,74.4,69.7,98,88,66,29.95,29.81,3,0,5,0.98
2012-9-3,87.2,74.2,69.8,79.9,72.4,69.2,98,95,73,29.95,29.85,2,0,5,1.63
2012-9-4,86.9,76.0,70.5,78.2,73.1,70.1,99,91,66,29.92,29.80,2,0,5,0.07
2012-9-5,86.6,76.4,70.8,76.9,73.1,70.0,98,90,68,29.84,29.74,3,0,5,0.00
2012-9-6,87.8,74.9,70.2,78.9,72.7,69.6,99,93,72,29.85,29.77,4,0,5,1.43
2012-9-7,83.4,74.0,69.4,75.2,71.2,68.8,99,92,69,29.89,29.76,2,0,5,0.01
2012-9-8,87.8,73.1,67.5,79.0,70.9,67.0,99,93,69,29.78,29.59,5,0,5,0.75
2012-9-9,77.0,66.3,57.5,68.4,60.4,55.1,98,83,48,29.89,29.72,4,0,5,0.01
2012-9-10,75.8,62.0,52.3,62.9,56.4,51.8,99,84,51,30.07,29.88,4,0,5,0.00
2012-9-11,76.8,61.3,50.8,62.4,55.7,50.3,99,84,47,30.22,30.07,3,0,5,0.00
2012-9-12,77.8,61.6,51.0,63.2,56.4,50.5,99,85,50,30.28,30.18,3,0,5,0.00
2012-9-13,77.7,61.6,49.9,62.3,56.3,49.4,98,85,47,30.28,30.16,3,0,5,0.00
2012-9-14,80.3,66.6,57.3,71.0,63.2,56.7,99,90,67,30.18,30.05,2,0,5,0.00
2012-9-15,78.8,66.5,57.5,69.4,62.3,56.9,99,87,67,30.09,30.01,3,0,5,0.00
2012-9-16,64.3,60.9,58.8,61.6,59.2,57.8,97,94,88,30.10,30.00,1,0,5,0.49
2012-9-17,76.0,67.0,58.8,72.5,65.7,58.0,98,95,88,30.03,29.84,1,0,5,0.10
2012-9-18,75.6,70.5,66.9,74.7,69.8,65.5,99,98,91,29.86,29.61,5,0,5,2.87
2012-9-19,71.1,63.9,55.4,67.3,60.1,54.6,99,88,66,30.05,29.69,3,0,5,0.03
2012-9-20,74.2,60.4,49.6,64.0,56.8,49.1,99,89,59,30.09,29.96,2,0,5,0.00
2012-9-21,77.4,63.9,53.3,67.9,60.6,52.8,99,90,65,30.01,29.90,2,0,5,0.00
2012-9-22,82.0,69.1,60.8,70.0,65.0,60.2,99,88,64,29.91,29.78,3,0,5,0.01
2012-9-23,71.5,61.7,49.7,65.8,52.1,42.0,96,74,35,30.04,29.85,3,0,5,0.00
2012-9-24,69.3,54.6,44.8,53.8,48.5,43.9,98,82,44,30.15,30.03,3,0,5,0.00
2012-9-25,73.8,58.1,45.2,63.5,54.0,44.7,98,88,58,30.16,30.05,2,0,5,0.00
2012-9-26,79.4,64.8,55.4,67.9,60.4,53.8,98,87,65,30.12,30.05,3,0,5,0.00
2012-9-27,81.1,64.9,55.3,66.7,60.7,54.7,99,88,55,30.10,29.98,2,0,5,0.00
2012-9-28,81.8,66.5,56.6,70.7,62.9,56.0,99,90,63,30.00,29.89,3,0,5,0.05
2012-9-29,66.3,62.4,59.3,65.7,61.6,58.5,98,97,94,29.91,29.80,1,0,5,0.95
2012-9-30,70.0,61.0,55.9,63.7,58.7,55.3,99,93,71,29.84,29.76,1,0,5,0.01
2012-10-1,62.7,60.5,57.8,61.1,59.4,56.9,98,96,92,29.85,29.77,2,0,5,0.11
2012-10-2,81.3,71.4,62.1,77.8,70.2,60.7,99,96,86,29.85,29.72,2,0,5,0.51
2012-10-3,82.0,74.4,70.3,76.4,72.0,68.5,99,93,72,30.06,29.85,2,0,5,0.00
2012-10-4,77.6,69.1,61.1,68.9,65.3,60.5,98,88,69,30.12,30.04,2,0,5,0.00
2012-10-5,77.1,62.9,53.7,65.1,59.4,53.4,99,89,55,30.09,29.92,1,0,5,0.00
2012-10-6,79.2,66.4,58.8,66.4,60.9,55.3,99,84,58,29.94,29.78,2,0,5,0.01
2012-10-7,64.5,52.3,48.6,55.6,50.6,47.4,97,94,79,30.06,29.87,4,0,5,1.26
2012-10-8,50.1,48.2,46.1,49.0,46.6,44.1,97,94,83,30.14,30.05,4,0,5,0.20
2012-10-9,57.0,50.8,46.0,54.2,49.4,45.2,98,95,88,30.08,29.99,2,0,5,0.04
2012-10-10,68.6,57.1,50.1,58.6,53.2,49.4,99,88,63,30.03,29.88,4,0,5,0.00
2012-10-11,62.7,51.2,42.8,51.3,45.3,40.6,97,82,54,30.22,30.01,2,0,5,0.00
2012-10-12,68.9,52.9,42.2,53.2,47.0,41.7,99,83,46,30.26,30.08,3,0,5,0.00
2012-10-13,61.7,49.5,38.9,51.6,44.6,37.7,97,84,57,30.39,30.23,3,0,5,0.00
2012-10-14,72.1,55.1,41.0,63.0,52.6,40.4,99,92,68,30.26,29.92,3,0,5,0.00
2012-10-15,68.6,61.8,53.8,67.1,60.4,47.9,99,95,80,29.93,29.61,1,0,5,0.38
2012-10-16,64.3,53.5,43.0,52.3,46.3,41.8,97,78,51,29.88,29.75,4,0,5,0.00
2012-10-17,67.0,53.2,44.4,55.5,49.8,43.8,99,90,58,29.92,29.85,2,0,5,0.00
2012-10-18,72.1,57.5,44.8,66.9,55.8,44.2,99,94,80,29.87,29.68,2,0,5,0.05
2012-10-19,70.7,61.1,48.2,63.9,55.8,40.1,99,85,39,29.69,29.58,4,0,5,0.24
2012-10-20,60.4,47.3,42.1,48.6,44.3,41.0,98,90,61,29.87,29.66,3,0,5,0.00
2012-10-21,62.7,49.2,39.6,48.8,43.1,38.6,98,82,50,30.07,29.86,3,0,5,0.00
2012-10-22,68.5,50.4,38.4,54.2,45.5,37.9,98,86,47,30.16,30.05,2,0,5,0.00
2012-10-23,74.3,56.1,44.0,59.1,51.5,43.5,98,87,51,30.10,30.00,3,0,5,0.00
2012-10-24,76.3,60.4,50.3,61.2,54.7,49.2,98,83,48,30.10,29.98,3,0,5,0.00
2012-10-25,74.8,58.4,47.2,63.5,55.2,46.7,99,90,62,30.08,30.00,2,0,5,0.00
2012-10-26,69.2,60.1,51.5,63.9,58.4,51.0,99,94,82,30.05,29.85,3,0,5,0.01
2012-10-27,62.6,62.2,61.0,61.7,61.0,59.0,97,96,93,29.86,29.73,3,0,5,0.00
2012-10-29,48.8,44.0,40.4,41.6,39.5,37.0,94,84,70,29.46,29.19,10,0,10,0.47
2012-10-30,50.0,44.6,40.7,37.7,34.5,31.7,88,68,52,29.50,29.16,7,0,10,0.00
2012-10-31,54.0,44.6,35.8,40.0,36.1,33.2,92,73,54,29.68,29.50,5,0,10,0.00
2012-11-1,57.0,45.8,34.4,40.5,36.8,33.1,95,72,48,29.76,29.65,9,0,10,0.00
2012-11-2,59.8,44.5,34.3,42.8,36.2,31.7,96,75,42,29.89,29.73,5,0,10,0.00
2012-11-3,58.4,42.7,32.2,39.8,34.8,30.7,94,76,39,30.01,29.89,5,0,10,0.03
2012-11-4,55.7,44.2,40.0,44.4,39.5,37.0,93,84,60,30.00,29.88,3,0,10,0.04
2012-11-5,54.3,41.6,33.4,42.0,35.4,31.7,97,80,46,30.03,29.91,3,0,10,0.00
2012-11-6,45.2,37.5,30.3,34.9,32.2,28.9,96,82,63,30.07,29.84,3,0,10,0.00
2012-11-7,53.2,42.1,33.4,37.8,33.8,31.1,95,73,51,29.86,29.74,4,0,10,0.00
2012-11-8,59.9,43.9,31.5,34.9,28.5,17.0,97,61,19,30.03,29.85,5,0,10,0.00
2012-11-9,62.7,43.4,31.3,38.6,32.5,25.8,92,69,34,30.16,30.02,4,0,10,0.00
2012-11-10,72.0,47.2,32.9,45.4,37.3,31.9,98,74,27,30.28,30.15,3,0,10,0.00
2012-11-11,73.1,51.2,36.2,52.8,44.3,34.6,98,80,46,30.38,30.27,3,0,10,0.00
2012-11-12,71.0,56.8,45.7,61.9,53.9,44.9,98,91,68,30.33,30.07,2,0,10,0.00
2012-11-13,59.9,47.1,34.4,59.3,45.6,33.6,98,94,88,30.33,30.05,6,0,10,0.13
2012-11-14,50.1,38.1,30.4,38.3,33.0,27.9,98,83,57,30.41,30.29,5,0,10,0.01
2012-11-15,47.2,40.4,34.0,41.9,36.7,30.3,96,87,72,30.32,30.16,3,0,10,0.16
2012-11-16,55.9,41.5,32.1,42.8,37.0,31.1,98,86,53,30.31,30.17,4,0,10,0.00
2012-11-17,56.9,40.8,29.1,35.9,31.8,28.4,97,74,36,30.41,30.30,5,0,10,0.00
2012-11-18,55.9,48.8,41.0,46.4,42.6,35.0,88,79,68,30.38,30.26,5,0,10,0.00
2012-11-19,58.4,50.5,42.0,48.6,44.0,40.0,93,79,67,30.27,30.13,6,0,10,0.00
2012-11-24,31.4,27.7,25.0,20.2,19.7,19.1,79,72,61,30.04,30.03,0,0,10,0.00
2012-11-25,51.6,33.2,19.7,27.4,22.7,17.4,94,68,34,30.09,29.93,3,0,10,0.00
2012-11-26,66.0,41.9,27.0,34.6,29.2,24.2,91,66,25,30.11,29.98,4,0,10,0.00
2012-11-27,56.2,45.5,36.4,44.1,37.9,30.5,94,76,48,30.15,30.01,2,0,10,0.07
2012-11-28,52.4,37.9,27.1,37.3,32.3,25.4,97,82,46,30.31,30.15,5,0,10,0.00
2012-11-29,55.4,34.1,22.6,34.3,27.2,21.1,96,79,39,30.40,30.28,2,0,10,0.00
2012-11-30,61.6,42.3,30.5,39.7,34.0,28.4,95,75,40,30.31,30.19,4,0,10,0.00
2012-12-1,66.3,42.8,31.6,47.6,37.0,30.3,97,83,45,30.32,30.22,4,0,10,0.00
2012-12-2,66.7,49.2,35.3,53.0,44.4,33.8,98,85,57,30.29,30.14,3,0,10,0.00
2012-12-3,77.3,59.7,52.1,58.7,53.5,50.4,97,82,50,30.19,30.10,2,0,3,0.00
2012-12-4,71.8,56.5,44.9,57.3,51.4,44.1,98,84,57,30.21,30.06,3,0,3,0.00
2012-12-5,62.1,54.8,36.9,58.1,52.1,35.9,97,91,81,30.12,30.01,2,0,3,0.11
2012-12-6,51.4,41.9,33.8,39.4,35.1,31.9,98,78,54,30.25,30.11,3,0,3,0.00
2012-12-7,50.5,46.7,43.3,48.6,43.5,35.9,97,89,72,30.14,29.91,1,0,3,0.38
2012-12-8,64.4,52.8,48.2,58.3,50.6,47.4,98,93,76,29.95,29.86,3,0,3,0.00
2012-12-9,69.3,57.1,48.6,65.1,55.9,47.4,99,96,80,30.03,29.89,2,0,3,0.12
2012-12-10,67.9,62.7,56.5,62.0,59.9,55.0,99,91,78,29.90,29.58,9,0,9,0.00
2012-12-11,63.4,53.7,44.7,58.6,43.6,34.0,94,69,52,30.06,29.58,5,0,9,0.00
2012-12-12,46.3,43.2,38.2,37.8,35.2,32.7,94,74,61,30.25,30.06,4,0,9,0.16
2012-12-13,51.7,39.2,28.3,40.1,34.0,26.9,95,82,58,30.31,30.19,5,0,9,0.14
2012-12-14,58.8,34.9,23.6,37.5,28.9,22.3,97,82,36,30.30,30.15,1,0,5,0.00
2012-12-15,59.1,42.3,29.1,41.6,34.9,27.6,95,77,41,30.18,29.99,1,0,5,0.00
2012-12-16,58.2,51.8,46.4,54.4,49.2,40.2,97,91,75,30.01,29.80,3,0,5,0.08
2012-12-17,59.7,55.8,52.0,56.3,54.0,51.2,98,94,86,29.81,29.54,4,0,5,0.28
2012-12-18,60.6,51.0,35.0,55.1,44.5,32.6,98,80,49,29.81,29.54,10,0,10,0.01
2012-12-19,63.7,43.0,31.3,41.9,35.4,29.9,96,78,38,30.03,29.79,5,0,10,0.00
2012-12-20,60.3,47.3,36.4,59.7,43.6,34.8,98,87,69,30.07,29.35,4,0,10,0.49
2012-12-21,59.8,44.7,38.5,50.6,36.6,29.1,85,73,65,29.49,29.37,9,0,10,0.00
2012-12-23,56.7,48.0,40.7,32.9,26.5,21.3,62,44,26,29.98,29.92,4,0,10,0.00
2012-12-24,48.9,44.9,39.7,46.0,39.5,29.2,94,82,63,29.94,29.80,3,0,10,0.04
2012-12-25,59.7,48.7,43.6,47.1,43.9,41.8,95,84,56,30.02,29.82,4,0,10,0.00
2012-12-26,47.5,41.3,35.8,43.4,39.2,34.6,97,92,81,30.00,29.48,7,0,10,1.39
2012-12-27,49.1,38.2,31.5,35.1,31.2,25.9,95,77,51,29.99,29.52,9,0,10,0.01
2012-12-28,35.2,29.4,24.6,32.0,26.0,22.6,95,87,79,30.08,29.92,2,0,10,0.00
2012-12-29,50.8,41.0,35.3,42.6,35.5,29.1,96,82,61,29.93,29.56,10,0,10,0.35
2012-12-30,37.4,36.0,34.4,23.7,22.4,21.3,61,57,54,30.23,30.17,7,0,10,0.00
2013-1-1,48.1,45.8,43.1,46.5,43.1,39.9,94,90,86,29.97,29.83,4,0,4,0.07